Location: ??????
(41.3164°N, 22.6615°E)
Time: 20:34:27
(UTC+00:00)

YAOGAN 1 - Pass Details

Date: 16 October 2021
Orbit: 618 x 620 km, 97.9° (Epoch: 29 November)

Event Time Altitude Azimuth Distance (km) Brightness Sun altitude
Rises 16:25:03 0° 135° (SE) 2,885 5.6 -7.9°
Reaches altitude 10° 16:27:31 10° 122° (ESE) 1,984 4.7 -8.4°
Maximum altitude 16:31:01 25° 68° (ENE) 1,267 3.6 -9.0°
Drops below altitude 10° 16:34:33 10° 13° (NNE) 1,996 5.0 -9.7°
Sets 16:37:03 0° 1° (N) 2,907 6.0 -10.2°
